BON311R FIMP-FACT

Flight info

Callsign BON311R
Flight time N/A
Altitude 34000
Route PASAR2A PASAR UA402 ETMOS/N0458F360 UA402 TGV DCT TUBIN UZ3 ESRUK UQ51 GETEN GETEN1C
Aircraft A320/M-SDE3FGHIRWY/LB1

Departure

Time N/A
Airport Sir Seewoosagur Ramgoolam International Airport (FIMP)

Arrival

Time 2026-05-04 19:53
Airport Cape Town International Airport (FACT)
Time Latitude Longitude Altitude Speed Heading
2026-05-04 18:53 -31.96926 25.33981 33968 ft 434 kts 259°
2026-05-04 18:53 -31.98083 25.30705 33969 ft 434 kts 259°
2026-05-04 18:54 -32.00416 25.24129 33964 ft 435 kts 259°
2026-05-04 18:54 -32.02743 25.17559 33960 ft 435 kts 259°
2026-05-04 18:55 -32.05064 25.10974 33963 ft 435 kts 259°
2026-05-04 18:55 -32.08539 25.01094 33948 ft 435 kts 259°
2026-05-04 18:56 -32.10842 24.94493 33955 ft 435 kts 259°
2026-05-04 18:56 -32.13146 24.87891 33956 ft 435 kts 259°
2026-05-04 18:57 -32.15462 24.81291 33955 ft 435 kts 259°
2026-05-04 18:57 -32.17763 24.74685 33949 ft 435 kts 259°
2026-05-04 18:58 -32.20051 24.68068 33955 ft 435 kts 259°
2026-05-04 18:58 -32.22346 24.61464 33944 ft 435 kts 259°
2026-05-04 18:59 -32.24635 24.54864 33939 ft 434 kts 259°
2026-05-04 18:59 -32.26925 24.48258 33940 ft 434 kts 259°
2026-05-04 19:00 -32.29205 24.41655 33947 ft 434 kts 259°
2026-05-04 19:00 -32.31476 24.35044 33946 ft 434 kts 259°
2026-05-04 19:01 -32.33749 24.28433 33947 ft 435 kts 259°
2026-05-04 19:01 -32.36024 24.21803 33943 ft 435 kts 259°
2026-05-04 19:02 -32.38291 24.15167 33949 ft 435 kts 259°
2026-05-04 19:02 -32.40553 24.08532 33946 ft 435 kts 259°
2026-05-04 19:03 -32.42830 24.01885 33954 ft 436 kts 259°
2026-05-04 19:03 -32.45096 23.95224 33952 ft 436 kts 260°
2026-05-04 19:04 -32.47349 23.88559 33955 ft 436 kts 260°
2026-05-04 19:04 -32.49604 23.81880 33966 ft 436 kts 260°
2026-05-04 19:05 -32.51850 23.75207 33974 ft 436 kts 260°
2026-05-04 19:05 -32.54100 23.68536 33984 ft 436 kts 260°
2026-05-04 19:06 -32.56345 23.61879 33989 ft 435 kts 260°
2026-05-04 19:06 -32.58573 23.55231 33995 ft 434 kts 260°
2026-05-04 19:07 -32.60791 23.48572 34349 ft 432 kts 260°
2026-05-04 19:07 -32.61893 23.45268 34786 ft 429 kts 260°
2026-05-04 19:07 -32.62986 23.41989 35219 ft 426 kts 260°
2026-05-04 19:08 -32.64072 23.38729 35648 ft 423 kts 260°
2026-05-04 19:08 -32.65150 23.35490 35922 ft 422 kts 260°
2026-05-04 19:08 -32.67303 23.29045 35963 ft 419 kts 260°
2026-05-04 19:09 -32.69438 23.22628 35965 ft 417 kts 260°
2026-05-04 19:09 -32.71565 23.16221 35967 ft 417 kts 260°
2026-05-04 19:10 -32.73691 23.09804 35964 ft 417 kts 260°
2026-05-04 19:10 -32.75810 23.03397 35977 ft 417 kts 260°
2026-05-04 19:11 -32.77933 22.96981 35984 ft 417 kts 260°
2026-05-04 19:11 -32.80048 22.90566 35994 ft 417 kts 260°
2026-05-04 19:12 -32.83217 22.80935 35989 ft 417 kts 261°
2026-05-04 19:13 -32.85306 22.74550 35988 ft 417 kts 261°
2026-05-04 19:13 -32.87403 22.68116 35994 ft 418 kts 261°
2026-05-04 19:14 -32.89508 22.61663 35997 ft 418 kts 260°
2026-05-04 19:14 -32.91627 22.55212 35995 ft 420 kts 259°
2026-05-04 19:15 -32.94053 22.48826 35995 ft 426 kts 256°
2026-05-04 19:15 -32.96686 22.42475 35998 ft 428 kts 256°
2026-05-04 19:16 -32.98880 22.37144 36000 ft 428 kts 256°
2026-05-04 19:16 -33.01433 22.30753 35998 ft 427 kts 256°
2026-05-04 19:17 -33.03949 22.24346 36003 ft 427 kts 256°
2026-05-04 19:17 -33.06474 22.17923 35999 ft 428 kts 256°
2026-05-04 19:18 -33.08997 22.11538 36004 ft 429 kts 256°
2026-05-04 19:18 -33.11538 22.05111 36003 ft 429 kts 256°
2026-05-04 19:19 -33.14076 21.98666 36006 ft 429 kts 256°
2026-05-04 19:19 -33.16607 21.92205 36006 ft 429 kts 256°
2026-05-04 19:20 -33.19129 21.85743 36007 ft 430 kts 256°
2026-05-04 19:20 -33.21664 21.79277 36012 ft 430 kts 256°
2026-05-04 19:21 -33.24194 21.72795 36016 ft 430 kts 256°
2026-05-04 19:21 -33.26720 21.66312 36020 ft 431 kts 256°
2026-05-04 19:22 -33.29238 21.59829 36019 ft 430 kts 256°
2026-05-04 19:22 -33.31756 21.53331 36035 ft 431 kts 256°
2026-05-04 19:23 -33.34268 21.46834 36031 ft 431 kts 256°
2026-05-04 19:23 -33.36780 21.40330 36034 ft 431 kts 256°
2026-05-04 19:24 -33.39290 21.33821 36037 ft 431 kts 256°
2026-05-04 19:24 -33.41794 21.27316 36032 ft 431 kts 256°
2026-05-04 19:25 -33.44300 21.20795 36022 ft 431 kts 256°
2026-05-04 19:25 -33.46799 21.14275 36018 ft 431 kts 256°
2026-05-04 19:26 -33.49298 21.07745 36031 ft 432 kts 256°
2026-05-04 19:26 -33.51800 21.01214 36036 ft 431 kts 256°
2026-05-04 19:27 -33.54296 20.94675 36036 ft 431 kts 256°
2026-05-04 19:27 -33.56788 20.88141 36041 ft 431 kts 256°
2026-05-04 19:27 -33.58025 20.84908 36016 ft 420 kts 256°
2026-05-04 19:28 -33.59238 20.81739 36024 ft 416 kts 256°
2026-05-04 19:28 -33.61621 20.75452 36025 ft 414 kts 256°
2026-05-04 19:29 -33.63991 20.69157 36020 ft 414 kts 256°
2026-05-04 19:29 -33.66348 20.62899 36023 ft 415 kts 256°
2026-05-04 19:30 -33.68730 20.56586 35922 ft 416 kts 256°
2026-05-04 19:30 -33.69923 20.53415 35576 ft 416 kts 256°
2026-05-04 19:30 -33.71112 20.50250 35223 ft 417 kts 256°
2026-05-04 19:30 -33.72321 20.47024 34873 ft 418 kts 256°
2026-05-04 19:31 -33.73517 20.43828 34520 ft 420 kts 256°
2026-05-04 19:31 -33.74714 20.40625 34186 ft 421 kts 256°
2026-05-04 19:31 -33.75899 20.37458 33826 ft 422 kts 256°
2026-05-04 19:31 -33.77107 20.34236 33424 ft 423 kts 256°
2026-05-04 19:32 -33.78318 20.31009 33036 ft 425 kts 256°
2026-05-04 19:32 -33.79534 20.27772 32651 ft 425 kts 256°
2026-05-04 19:32 -33.80751 20.24524 32265 ft 426 kts 256°
2026-05-04 19:32 -33.81966 20.21266 31889 ft 427 kts 256°
2026-05-04 19:33 -33.83179 20.18007 31522 ft 427 kts 256°
2026-05-04 19:33 -33.84393 20.14747 31150 ft 427 kts 256°
2026-05-04 19:33 -33.85607 20.11482 30786 ft 427 kts 256°
2026-05-04 19:33 -33.86818 20.08227 30433 ft 426 kts 256°
2026-05-04 19:34 -33.88020 20.04990 30077 ft 423 kts 256°
2026-05-04 19:34 -33.89216 20.01762 29661 ft 420 kts 256°
2026-05-04 19:34 -33.90399 19.98568 29239 ft 417 kts 256°
2026-05-04 19:34 -33.91572 19.95396 28832 ft 414 kts 256°
2026-05-04 19:35 -33.92738 19.92237 28428 ft 411 kts 256°
2026-05-04 19:35 -33.93910 19.89062 28019 ft 408 kts 256°
2026-05-04 19:35 -33.95041 19.85988 27628 ft 405 kts 256°
2026-05-04 19:35 -33.96177 19.82898 27241 ft 403 kts 256°
2026-05-04 19:36 -33.97319 19.79829 26857 ft 402 kts 255°
2026-05-04 19:36 -33.98542 19.76787 26148 ft 404 kts 253°
2026-05-04 19:36 -33.99834 19.73790 25600 ft 401 kts 252°
2026-05-04 19:36 -34.01165 19.70803 25135 ft 396 kts 252°
2026-05-04 19:37 -34.02437 19.67971 25015 ft 383 kts 252°
2026-05-04 19:37 -34.03696 19.65149 24751 ft 374 kts 252°
2026-05-04 19:37 -34.05079 19.62423 23987 ft 390 kts 244°
2026-05-04 19:37 -34.06716 19.59791 23384 ft 392 kts 243°
2026-05-04 19:38 -34.08327 19.57214 22782 ft 387 kts 245°
2026-05-04 19:38 -34.09535 19.54414 22227 ft 370 kts 257°
2026-05-04 19:38 -34.10471 19.51499 21678 ft 366 kts 258°
2026-05-04 19:38 -34.11351 19.48637 21149 ft 364 kts 258°
2026-05-04 19:39 -34.12211 19.45771 20623 ft 361 kts 258°
2026-05-04 19:39 -34.13042 19.42916 20100 ft 359 kts 258°
2026-05-04 19:39 -34.13850 19.40070 19583 ft 357 kts 258°
2026-05-04 19:39 -34.14634 19.37234 19054 ft 355 kts 258°
2026-05-04 19:40 -34.15393 19.34403 18543 ft 354 kts 258°
2026-05-04 19:40 -34.16131 19.31579 17967 ft 352 kts 258°
2026-05-04 19:40 -34.16847 19.28766 17416 ft 349 kts 258°
2026-05-04 19:40 -34.17527 19.26020 17116 ft 330 kts 258°
2026-05-04 19:41 -34.18154 19.23490 16957 ft 308 kts 258°
2026-05-04 19:41 -34.18763 19.21026 16491 ft 298 kts 258°
2026-05-04 19:41 -34.19339 19.18650 15910 ft 293 kts 258°
2026-05-04 19:41 -34.19892 19.16289 15271 ft 291 kts 258°
2026-05-04 19:42 -34.20414 19.13940 14662 ft 289 kts 258°
2026-05-04 19:42 -34.20910 19.11598 14062 ft 287 kts 258°
2026-05-04 19:42 -34.21378 19.09288 13455 ft 286 kts 258°
2026-05-04 19:42 -34.21864 19.06937 12823 ft 284 kts 253°
2026-05-04 19:43 -34.22575 19.04757 12221 ft 282 kts 249°
2026-05-04 19:43 -34.23356 19.02595 11650 ft 280 kts 248°
2026-05-04 19:43 -34.24056 19.00682 11136 ft 277 kts 248°
2026-05-04 19:43 -34.24817 18.98608 10501 ft 277 kts 248°
2026-05-04 19:44 -34.25618 18.96425 9609 ft 288 kts 248°
2026-05-04 19:44 -34.26452 18.94137 8653 ft 305 kts 248°
2026-05-04 19:44 -34.27313 18.91781 8190 ft 299 kts 248°
2026-05-04 19:44 -34.28125 18.89567 8054 ft 276 kts 248°
2026-05-04 19:45 -34.28885 18.87505 7672 ft 265 kts 248°
2026-05-04 19:45 -34.29631 18.85481 7132 ft 262 kts 248°
2026-05-04 19:45 -34.30369 18.83480 6606 ft 259 kts 249°
2026-05-04 19:45 -34.30740 18.81430 6103 ft 251 kts 275°
2026-05-04 19:46 -34.30202 18.79430 5730 ft 251 kts 303°
2026-05-04 19:46 -34.29075 18.77835 5358 ft 253 kts 312°
2026-05-04 19:46 -34.27825 18.76301 5023 ft 253 kts 313°
2026-05-04 19:46 -34.26595 18.74819 4985 ft 253 kts 313°
2026-05-04 19:47 -34.25329 18.73297 4978 ft 254 kts 313°
2026-05-04 19:47 -34.24078 18.71794 4988 ft 254 kts 313°
2026-05-04 19:47 -34.22826 18.70292 4986 ft 254 kts 313°
2026-05-04 19:47 -34.21571 18.68791 4966 ft 255 kts 315°
2026-05-04 19:48 -34.20066 18.67662 4514 ft 265 kts 339°
2026-05-04 19:48 -34.18269 18.67072 4129 ft 262 kts 343°
2026-05-04 19:48 -34.16541 18.66537 3780 ft 251 kts 342°
2026-05-04 19:48 -34.14900 18.66018 3455 ft 242 kts 342°
2026-05-04 19:49 -34.13303 18.65509 3138 ft 233 kts 342°
2026-05-04 19:49 -34.11772 18.65021 2831 ft 223 kts 342°
2026-05-04 19:49 -34.10301 18.64553 2536 ft 214 kts 343°
2026-05-04 19:49 -34.08871 18.64098 2245 ft 205 kts 343°
2026-05-04 19:50 -34.07521 18.63669 1989 ft 196 kts 343°
2026-05-04 19:50 -34.06249 18.63265 1729 ft 181 kts 343°
2026-05-04 19:50 -34.05097 18.62913 1483 ft 159 kts 343°
2026-05-04 19:50 -34.04084 18.62599 1299 ft 144 kts 343°
2026-05-04 19:51 -34.03139 18.62286 1033 ft 138 kts 342°
2026-05-04 19:51 -34.02215 18.61986 862 ft 137 kts 345°
2026-05-04 19:51 -34.01292 18.61693 690 ft 137 kts 345°
2026-05-04 19:51 -34.00376 18.61398 512 ft 136 kts 346°
2026-05-04 19:52 -33.99463 18.61110 339 ft 135 kts 346°
2026-05-04 19:52 -33.98555 18.60822 175 ft 135 kts 345°
2026-05-04 19:52 -33.97762 18.60567 158 ft 98 kts 344°
2026-05-04 19:52 -33.97238 18.60399 158 ft 61 kts 346°
2026-05-04 19:53 -33.96882 18.60281 167 ft 49 kts 345°
2026-05-04 19:53 -33.96583 18.60189 171 ft 35 kts 345°
2026-05-04 19:53 -33.96385 18.60032 167 ft 36 kts 314°
2026-05-04 19:53 -33.96229 18.59848 168 ft 23 kts 316°
2026-05-04 19:54 -33.96223 18.59738 168 ft 16 kts 215°
2026-05-04 19:54 -33.96336 18.59743 168 ft 18 kts 169°
2026-05-04 19:54 -33.96470 18.59771 168 ft 21 kts 170°
2026-05-04 19:54 -33.96620 18.59810 167 ft 23 kts 167°
2026-05-04 19:55 -33.96785 18.59863 167 ft 26 kts 164°
2026-05-04 19:55 -33.96934 18.59912 167 ft 22 kts 165°
2026-05-04 19:55 -33.97081 18.59956 167 ft 22 kts 172°
2026-05-04 19:55 -33.97207 18.59990 167 ft 11 kts 166°
2026-05-04 19:56 -33.97255 18.59969 167 ft 8 kts 249°
2026-05-04 19:56 -33.97263 18.59927 167 ft 3 kts 254°
2026-05-04 19:56 -33.97265 18.59917 167 ft 1 kts 255°
2026-05-04 19:56 -33.97266 18.59915 167 ft 0 kts 255°